Date,TemperatureHighF,TemperatureAvgF,TemperatureLowF,DewpointHighF,DewpointAvgF,DewpointLowF,HumidityHigh,HumidityAvg,HumidityLow,PressureMaxIn,PressureMinIn,WindSpeedMaxMPH,WindSpeedAvgMPH,GustSpeedMaxMPH,PrecipitationSumIn
2013-5-1,69.7,60.6,50.1,55.5,52.0,48.1,94,74,54,30.28,30.17,5,2,11,0.00
2013-5-2,69.4,60.3,55.2,56.5,52.2,49.3,84,75,60,30.30,30.20,5,2,10,0.00
2013-5-3,58.7,56.1,54.7,52.1,49.8,48.6,84,79,77,30.23,30.17,4,1,8,0.00
2013-5-4,61.9,54.3,47.0,47.7,42.0,36.7,76,64,40,30.11,30.00,5,3,0,0.00
2013-5-5,53.9,51.0,46.1,50.2,43.5,33.2,92,76,53,30.07,29.90,7,4,14,0.16
2013-5-6,63.0,54.8,47.3,56.9,51.3,45.4,94,88,77,29.93,29.84,7,2,15,0.44
2013-5-7,61.7,53.5,48.5,55.3,50.3,46.7,95,89,69,29.98,29.89,7,1,11,0.05
2013-5-8,61.7,55.0,49.8,57.6,52.7,48.1,95,92,82,30.07,29.93,5,1,10,0.27
2013-5-9,72.8,58.9,51.5,62.3,54.9,50.4,96,88,57,30.15,30.05,4,1,10,0.08
2013-5-10,76.6,61.4,50.5,62.8,56.3,49.1,96,85,53,30.12,29.95,5,1,10,0.01
2013-5-11,71.4,60.0,55.1,62.0,57.0,51.1,96,90,66,29.98,29.83,7,1,10,0.23
2013-5-12,58.3,50.1,39.2,51.3,39.8,32.3,93,71,39,30.14,29.92,8,3,15,0.07
2013-5-13,59.8,45.7,32.5,41.7,33.0,27.0,95,66,29,30.25,30.14,7,2,13,0.00
2013-5-14,72.6,51.9,31.1,54.1,41.3,29.3,95,71,39,30.31,30.06,5,1,8,0.00
2013-5-15,83.4,63.9,46.6,64.0,54.9,45.0,96,76,47,30.14,29.95,5,1,10,0.00
2013-5-16,78.3,62.7,48.8,62.5,55.6,47.2,96,80,48,30.05,29.97,4,1,8,0.00
2013-5-17,80.6,64.1,52.0,64.3,57.6,50.3,95,82,48,30.12,30.03,3,0,5,0.18
2013-5-18,69.5,63.1,57.7,66.2,61.0,56.3,96,93,86,30.13,30.03,1,0,1,0.03
2013-5-19,78.6,65.2,60.1,70.0,62.2,58.0,96,90,68,30.09,29.98,4,0,4,1.24
2013-5-20,73.9,63.5,58.9,68.9,61.5,57.3,96,93,82,30.15,30.03,2,0,4,0.53
2013-5-21,84.0,68.0,56.7,72.0,63.1,55.3,96,85,58,30.09,29.91,5,0,10,0.01
2013-5-22,83.1,66.9,56.2,70.0,61.1,54.5,95,83,56,29.98,29.86,4,1,6,0.01
2013-5-23,77.1,64.9,58.4,67.1,60.4,55.7,96,86,58,29.95,29.84,7,1,8,0.17
2013-5-24,61.1,54.6,41.8,56.0,46.1,37.7,92,75,44,30.28,29.94,9,4,16,0.13
2013-5-25,66.2,50.8,36.6,45.7,39.9,32.8,95,71,30,30.41,30.27,7,2,12,0.00
2013-5-26,70.3,58.0,48.8,54.3,48.5,45.0,92,73,48,30.32,30.22,6,1,11,0.00
2013-5-27,80.3,63.0,45.5,64.2,54.5,43.9,95,76,49,30.29,30.10,3,0,8,0.00
2013-5-28,82.3,67.2,52.4,65.7,59.1,50.7,95,78,48,30.21,30.08,5,1,10,0.00
2013-5-29,85.4,68.2,52.7,67.3,59.9,51.0,96,78,44,30.23,30.11,3,0,6,0.00
2013-5-30,86.8,69.6,53.5,68.7,60.0,51.8,95,75,44,30.25,30.09,3,0,4,0.00
2013-5-31,86.0,69.7,54.4,70.5,61.5,52.7,95,77,49,30.20,30.04,4,0,6,0.00